Weather History for KTUS - January, 2012

Change the Weather History Date:

Tuesday, January 31, 2012

  Actual Average Record
Temperature  
Mean Temperature 60 °F 54 °F  
Max Temperature 73 °F 67 °F 84 °F (2003)
Min Temperature 47 °F 41 °F 22 °F (1949)
Degree Days  
Heating Degree Days 5 11  
Month to date heating degree days 289 382  
Since 1 July heating degree days 967 994  
Cooling Degree Days 0 0  
Month to date cooling degree days 2 1  
Year to date cooling degree days 2 1  
Growing Degree Days 10 (Base 50)    
Moisture  
Dew Point 20 °F    
Average Humidity 23    
Maximum Humidity 37    
Minimum Humidity 9    
Precipitation  
Precipitation 0.00 in 0.03 in 0.96 in (1986)
Month to date precipitation 0.14 0.94  
Year to date precipitation 0.14 0.94  
Snow  
Snow 0.00 in - - ()
Month to date snowfall 0.0  
Snow Depth 0.00 in    
Sea Level Pressure  
Sea Level Pressure 30.02 in    
Wind  
Wind Speed 8 mph (SSE)    
Max Wind Speed 17 mph    
Max Gust Speed 24 mph    
Visibility 10 miles    
Events      
T = Trace of Precipitation, MM = Missing Value Source: NWS Daily Summary

Daily Weather History Graph

Daily Weather History Graph

Search for Another Location

Airport or City:

Trip Planner

Search our weather history database for the weather conditions in past years. The results will help you decide how hot, cold, wet, or windy it might be!

Date:

Astronomy

Jan. 31, 2012 Rise Set
Actual Time 7:18 AM MST 5:56 PM MST
Civil Twilight 6:52 AM MST 6:22 PM MST
Nautical Twilight 6:23 AM MST 6:51 PM MST
Astronomical Twilight 5:54 AM MST 7:20 PM MST
Moon 11:51 AM MST (1/31) 1:08 AM MST (1/31)
Length of Visible Light 11h 29m
Length of Day
10h 37m
First Quarter, 56% of the Moon is Illuminated
Jan 31
First Quarter
Feb 7
Full
Feb 14
Last Quarter
Feb 21
New
Feb 29
First Quarter

Hourly Weather History & Observations

Time (MST) Temp. Dew Point Humidity Pressure Visibility Wind Dir Wind Speed Gust Speed Precip Events Conditions
12:53 AM 48.9 °F 21.9 °F 35% 29.99 in 10.0 mi SE 9.2 mph - N/A   Clear
1:53 AM 48.9 °F 21.9 °F 35% 29.98 in 10.0 mi SSE 11.5 mph - N/A   Clear
2:53 AM 48.0 °F 21.9 °F 36% 29.98 in 10.0 mi SSE 5.8 mph - N/A   Clear
3:53 AM 48.0 °F 21.9 °F 36% 29.97 in 10.0 mi SE 5.8 mph - N/A   Clear
4:53 AM 46.9 °F 21.9 °F 37% 29.97 in 10.0 mi East 4.6 mph - N/A   Clear
5:53 AM 48.0 °F 21.9 °F 36% 29.97 in 10.0 mi SSE 8.1 mph - N/A   Clear
6:53 AM 48.0 °F 23.0 °F 37% 29.99 in 10.0 mi SE 6.9 mph - N/A   Clear
7:53 AM 48.0 °F 23.0 °F 37% 30.02 in 10.0 mi SE 9.2 mph - N/A   Clear
8:53 AM 51.1 °F 24.1 °F 35% 30.03 in 10.0 mi SE 9.2 mph - N/A   Clear
9:53 AM 57.0 °F 24.1 °F 28% 30.04 in 10.0 mi SE 4.6 mph - N/A   Clear
10:53 AM 64.0 °F 24.1 °F 22% 30.03 in 10.0 mi SE 6.9 mph - N/A   Clear
11:53 AM 68.0 °F 21.9 °F 17% 30.01 in 10.0 mi SSE 9.2 mph 20.7 mph N/A   Clear
12:53 PM 70.0 °F 21.9 °F 16% 29.98 in 10.0 mi South 8.1 mph 18.4 mph N/A   Clear
1:53 PM 72.0 °F 18.0 °F 13% 29.95 in 10.0 mi SW 8.1 mph - N/A   Clear
2:53 PM 73.0 °F 12.9 °F 10% 29.96 in 10.0 mi WSW 15.0 mph 21.9 mph N/A   Clear
3:53 PM 73.0 °F 15.1 °F 11% 29.97 in 10.0 mi West 8.1 mph 16.1 mph N/A   Clear
4:53 PM 71.1 °F 14.0 °F 11% 29.99 in 10.0 mi WNW 11.5 mph - N/A   Clear
5:53 PM 68.0 °F 16.0 °F 14% 30.01 in 10.0 mi WNW 5.8 mph - N/A   Clear
6:53 PM 64.0 °F 21.0 °F 19% 30.04 in 10.0 mi North 5.8 mph - N/A   Clear
7:53 PM 59.0 °F 21.9 °F 24% 30.07 in 10.0 mi Calm Calm - N/A   Clear
8:53 PM 55.0 °F 19.0 °F 24% 30.09 in 10.0 mi SSW 3.5 mph - N/A   Clear
9:53 PM 53.1 °F 19.0 °F 26% 30.09 in 10.0 mi South 4.6 mph - N/A   Clear
10:53 PM 48.9 °F 19.9 °F 32% 30.11 in 10.0 mi SSE 5.8 mph - N/A   Clear
11:53 PM 46.9 °F 19.9 °F 34% 30.12 in 10.0 mi SE 4.6 mph - N/A   Clear